Year,Month,Day,Hour,Minute,Value (Times are PST for temperature in C)
2014,10,11,00,00,10.00
2014,10,11,00,01,10.00
2014,10,11,00,02,10.10
2014,10,11,00,03,10.10
2014,10,11,00,04,10.10
2014,10,11,00,05,10.00
2014,10,11,00,06,9.90
2014,10,11,00,07,9.90
2014,10,11,00,08,10.00
2014,10,11,00,09,10.10
2014,10,11,00,10,10.20
2014,10,11,00,11,10.30
2014,10,11,00,12,10.30
2014,10,11,00,13,10.30
2014,10,11,00,14,10.30
2014,10,11,00,15,10.30
2014,10,11,00,16,10.20
2014,10,11,00,17,10.20
2014,10,11,00,18,10.20
2014,10,11,00,19,10.20
2014,10,11,00,20,10.20
2014,10,11,00,21,10.10
2014,10,11,00,22,10.00
2014,10,11,00,23,9.90
2014,10,11,00,24,9.90
2014,10,11,00,25,9.90
2014,10,11,00,26,9.90
2014,10,11,00,27,9.90
2014,10,11,00,28,10.00
2014,10,11,00,29,10.00
2014,10,11,00,30,10.00
2014,10,11,00,31,9.90
2014,10,11,00,32,9.90
2014,10,11,00,33,9.90
2014,10,11,00,34,9.90
2014,10,11,00,35,9.90
2014,10,11,00,36,9.80
2014,10,11,00,37,9.80
2014,10,11,00,38,9.70
2014,10,11,00,39,9.60
2014,10,11,00,40,9.60
2014,10,11,00,41,9.50
2014,10,11,00,42,9.50
2014,10,11,00,43,9.50
2014,10,11,00,44,9.40
2014,10,11,00,45,9.40
2014,10,11,00,46,9.40
2014,10,11,00,47,9.40
2014,10,11,00,48,9.40
2014,10,11,00,49,9.30
2014,10,11,00,50,9.30
2014,10,11,00,51,9.40
2014,10,11,00,52,9.40
2014,10,11,00,53,9.40
2014,10,11,00,54,9.40
2014,10,11,00,55,9.30
2014,10,11,00,56,9.30
2014,10,11,00,57,9.30
2014,10,11,00,58,9.20
2014,10,11,00,59,9.20
2014,10,11,01,00,9.20
2014,10,11,01,01,9.10
2014,10,11,01,02,9.10
2014,10,11,01,03,9.00
2014,10,11,01,04,9.00
2014,10,11,01,05,9.00
2014,10,11,01,06,9.00
2014,10,11,01,07,9.10
2014,10,11,01,08,9.10
2014,10,11,01,09,9.20
2014,10,11,01,10,9.20
2014,10,11,01,11,9.20
2014,10,11,01,12,9.20
2014,10,11,01,13,9.20
2014,10,11,01,14,9.10
2014,10,11,01,15,9.10
2014,10,11,01,16,9.10
2014,10,11,01,17,9.10
2014,10,11,01,18,9.00
2014,10,11,01,19,9.00
2014,10,11,01,20,8.90
2014,10,11,01,21,8.90
2014,10,11,01,22,8.80
2014,10,11,01,23,8.80
2014,10,11,01,24,8.80
2014,10,11,01,25,8.80
2014,10,11,01,26,8.80
2014,10,11,01,27,8.90
2014,10,11,01,28,8.90
2014,10,11,01,29,8.90
2014,10,11,01,30,9.00
2014,10,11,01,31,9.10
2014,10,11,01,32,9.10
2014,10,11,01,33,9.20
2014,10,11,01,34,9.20
2014,10,11,01,35,9.10
2014,10,11,01,36,9.10
2014,10,11,01,37,9.00
2014,10,11,01,38,9.10
2014,10,11,01,39,9.10
2014,10,11,01,40,9.10
2014,10,11,01,41,9.10
2014,10,11,01,42,9.00
2014,10,11,01,43,9.00
2014,10,11,01,44,8.90
2014,10,11,01,45,8.90
2014,10,11,01,46,8.90
2014,10,11,01,47,8.70
2014,10,11,01,48,8.60
2014,10,11,01,49,8.60
2014,10,11,01,50,8.60
2014,10,11,01,51,8.50
2014,10,11,01,52,8.60
2014,10,11,01,53,8.60
2014,10,11,01,54,8.70
2014,10,11,01,55,8.60
2014,10,11,01,56,8.60
2014,10,11,01,57,8.50
2014,10,11,01,58,8.50
2014,10,11,01,59,8.50
2014,10,11,02,00,8.50
2014,10,11,02,01,8.50
2014,10,11,02,02,8.50
2014,10,11,02,03,8.40
2014,10,11,02,04,8.40
2014,10,11,02,05,8.40
2014,10,11,02,06,8.40
2014,10,11,02,07,8.40
2014,10,11,02,08,8.40
2014,10,11,02,09,8.40
2014,10,11,02,10,8.40
2014,10,11,02,11,8.40
2014,10,11,02,12,8.40
2014,10,11,02,13,8.30
2014,10,11,02,14,8.30
2014,10,11,02,15,8.30
2014,10,11,02,16,8.30
2014,10,11,02,17,8.30
2014,10,11,02,18,8.30
2014,10,11,02,19,8.30
2014,10,11,02,20,8.30
2014,10,11,02,21,8.30
2014,10,11,02,22,8.40
2014,10,11,02,23,8.40
2014,10,11,02,24,8.50
2014,10,11,02,25,8.60
2014,10,11,02,26,8.60
2014,10,11,02,27,8.70
2014,10,11,02,28,8.70
2014,10,11,02,29,8.70
2014,10,11,02,30,8.70
2014,10,11,02,31,8.70
2014,10,11,02,32,8.60
2014,10,11,02,33,8.60
2014,10,11,02,34,8.50
2014,10,11,02,35,8.50
2014,10,11,02,36,8.40
2014,10,11,02,37,8.40
2014,10,11,02,38,8.40
2014,10,11,02,39,8.40
2014,10,11,02,40,8.40
2014,10,11,02,41,8.40
2014,10,11,02,42,8.40
2014,10,11,02,43,8.40
2014,10,11,02,44,8.40
2014,10,11,02,45,8.40
2014,10,11,02,46,8.40
2014,10,11,02,47,8.40
2014,10,11,02,48,8.40
2014,10,11,02,49,8.50
2014,10,11,02,50,8.60
2014,10,11,02,51,8.60
2014,10,11,02,52,8.80
2014,10,11,02,53,8.80
2014,10,11,02,54,8.80
2014,10,11,02,55,8.70
2014,10,11,02,56,8.60
2014,10,11,02,57,8.50
2014,10,11,02,58,8.50
2014,10,11,02,59,8.40
2014,10,11,03,00,8.40
2014,10,11,03,01,8.40
2014,10,11,03,02,8.40
2014,10,11,03,03,8.40
2014,10,11,03,04,8.50
2014,10,11,03,05,8.50
2014,10,11,03,06,8.50
2014,10,11,03,07,8.40
2014,10,11,03,08,8.40
2014,10,11,03,09,8.30
2014,10,11,03,10,8.30
2014,10,11,03,11,8.30
2014,10,11,03,12,8.20
2014,10,11,03,13,8.20
2014,10,11,03,14,8.20
2014,10,11,03,15,8.10
2014,10,11,03,16,8.20
2014,10,11,03,17,8.20
2014,10,11,03,18,8.30
2014,10,11,03,19,8.30
2014,10,11,03,20,8.30
2014,10,11,03,21,8.30
2014,10,11,03,22,8.40
2014,10,11,03,23,8.40
2014,10,11,03,24,8.40
2014,10,11,03,25,8.40
2014,10,11,03,26,8.40
2014,10,11,03,27,8.40
2014,10,11,03,28,8.40
2014,10,11,03,29,8.40
2014,10,11,03,30,8.40
2014,10,11,03,31,8.40
2014,10,11,03,32,8.40
2014,10,11,03,33,8.40
2014,10,11,03,34,8.40
2014,10,11,03,35,8.30
2014,10,11,03,36,8.30
2014,10,11,03,37,8.30
2014,10,11,03,38,8.40
2014,10,11,03,39,8.40
2014,10,11,03,40,8.40
2014,10,11,03,41,8.40
2014,10,11,03,42,8.40
2014,10,11,03,43,8.40
2014,10,11,03,44,8.40
2014,10,11,03,45,8.40
2014,10,11,03,46,8.30
2014,10,11,03,47,8.40
2014,10,11,03,48,8.40
2014,10,11,03,49,8.40
2014,10,11,03,50,8.40
2014,10,11,03,51,8.30
2014,10,11,03,52,8.30
2014,10,11,03,53,8.30
2014,10,11,03,54,8.20
2014,10,11,03,55,8.20
2014,10,11,03,56,8.20
2014,10,11,03,57,8.20
2014,10,11,03,58,8.30
2014,10,11,03,59,8.30
2014,10,11,04,00,8.20
2014,10,11,04,01,8.20
2014,10,11,04,02,8.20
2014,10,11,04,03,8.20
2014,10,11,04,04,8.20
2014,10,11,04,05,8.10
2014,10,11,04,06,8.10
2014,10,11,04,07,8.10
2014,10,11,04,08,8.10
2014,10,11,04,09,8.10
2014,10,11,04,10,8.20
2014,10,11,04,11,8.20
2014,10,11,04,12,8.20
2014,10,11,04,13,8.30
2014,10,11,04,14,8.20
2014,10,11,04,15,8.20
2014,10,11,04,16,8.30
2014,10,11,04,17,8.30
2014,10,11,04,18,8.40
2014,10,11,04,19,8.40
2014,10,11,04,20,8.40
2014,10,11,04,21,8.40
2014,10,11,04,22,8.40
2014,10,11,04,23,8.50
2014,10,11,04,24,8.50
2014,10,11,04,25,8.50
2014,10,11,04,26,8.50
2014,10,11,04,27,8.60
2014,10,11,04,28,8.60
2014,10,11,04,29,8.70
2014,10,11,04,30,8.70
2014,10,11,04,31,8.80
2014,10,11,04,32,8.80
2014,10,11,04,33,8.80
2014,10,11,04,34,8.90
2014,10,11,04,35,8.90
2014,10,11,04,36,8.90
2014,10,11,04,37,8.90
2014,10,11,04,38,9.00
2014,10,11,04,39,9.00
2014,10,11,04,40,9.00
2014,10,11,04,41,9.00
2014,10,11,04,42,9.10
2014,10,11,04,43,9.10
2014,10,11,04,44,9.20
2014,10,11,04,45,9.20
2014,10,11,04,46,9.30
2014,10,11,04,47,9.30
2014,10,11,04,48,9.30
2014,10,11,04,49,9.40
2014,10,11,04,50,9.50
2014,10,11,04,51,9.50
2014,10,11,04,52,9.40
2014,10,11,04,53,9.40
2014,10,11,04,54,9.30
2014,10,11,04,55,9.30
2014,10,11,04,56,9.40
2014,10,11,04,57,9.40
2014,10,11,04,58,9.50
2014,10,11,04,59,9.50
2014,10,11,05,00,9.50
2014,10,11,05,01,9.50
2014,10,11,05,02,9.60
2014,10,11,05,03,9.60
2014,10,11,05,04,9.60
2014,10,11,05,05,9.70
2014,10,11,05,06,9.70
2014,10,11,05,07,9.80
2014,10,11,05,08,9.80
2014,10,11,05,09,9.80
2014,10,11,05,10,9.80
2014,10,11,05,11,9.90
2014,10,11,05,12,9.90
2014,10,11,05,13,9.90
2014,10,11,05,14,9.90
2014,10,11,05,15,9.90
2014,10,11,05,16,9.90
2014,10,11,05,17,9.90
2014,10,11,05,18,9.90
2014,10,11,05,19,9.90
2014,10,11,05,20,9.90
2014,10,11,05,21,9.90
2014,10,11,05,22,9.90
2014,10,11,05,23,10.00
2014,10,11,05,24,10.00
2014,10,11,05,25,10.00
2014,10,11,05,26,10.00
2014,10,11,05,27,10.00
2014,10,11,05,28,10.00
2014,10,11,05,29,10.00
2014,10,11,05,30,10.10
2014,10,11,05,31,10.10
2014,10,11,05,32,10.10
2014,10,11,05,33,10.10
2014,10,11,05,34,10.00
2014,10,11,05,35,10.00
2014,10,11,05,36,10.00
2014,10,11,05,37,10.00
2014,10,11,05,38,10.00
2014,10,11,05,39,10.00
2014,10,11,05,40,10.00
2014,10,11,05,41,10.00
2014,10,11,05,42,10.00
2014,10,11,05,43,10.00
2014,10,11,05,44,9.90
2014,10,11,05,45,9.90
2014,10,11,05,46,9.90
2014,10,11,05,47,9.90
2014,10,11,05,48,9.90
2014,10,11,05,49,9.90
2014,10,11,05,50,10.00
2014,10,11,05,51,10.00
2014,10,11,05,52,10.10
2014,10,11,05,53,10.10
2014,10,11,05,54,10.10
2014,10,11,05,55,10.10
2014,10,11,05,56,10.20
2014,10,11,05,57,10.20
2014,10,11,05,58,10.20
2014,10,11,05,59,10.20
2014,10,11,06,00,10.20
2014,10,11,06,01,10.20
2014,10,11,06,02,10.20
2014,10,11,06,03,10.20
2014,10,11,06,04,10.20
2014,10,11,06,05,10.20
2014,10,11,06,06,10.10
2014,10,11,06,07,10.10
2014,10,11,06,08,10.10
2014,10,11,06,09,10.20
2014,10,11,06,10,10.20
2014,10,11,06,11,10.20
2014,10,11,06,12,10.10
2014,10,11,06,13,10.10
2014,10,11,06,14,10.10
2014,10,11,06,15,10.10
2014,10,11,06,16,10.10
2014,10,11,06,17,10.10
2014,10,11,06,18,10.10
2014,10,11,06,19,10.10
2014,10,11,06,20,10.10
2014,10,11,06,21,10.10
2014,10,11,06,22,10.20
2014,10,11,06,23,10.20
2014,10,11,06,24,10.20
2014,10,11,06,25,10.20
2014,10,11,06,26,10.20
2014,10,11,06,27,10.20
2014,10,11,06,28,10.20
2014,10,11,06,29,10.20
2014,10,11,06,30,10.20
2014,10,11,06,31,10.20
2014,10,11,06,32,10.20
2014,10,11,06,33,10.20
2014,10,11,06,34,10.20
2014,10,11,06,35,10.20
2014,10,11,06,36,10.20
2014,10,11,06,37,10.20
2014,10,11,06,38,10.30
2014,10,11,06,39,10.30
2014,10,11,06,40,10.30
2014,10,11,06,41,10.30
2014,10,11,06,42,10.30
2014,10,11,06,43,10.30
2014,10,11,06,44,10.40
2014,10,11,06,45,10.40
2014,10,11,06,46,10.40
2014,10,11,06,47,10.50
2014,10,11,06,48,10.50
2014,10,11,06,49,10.50
2014,10,11,06,50,10.50
2014,10,11,06,51,10.50
2014,10,11,06,52,10.60
2014,10,11,06,53,10.60
2014,10,11,06,54,10.60
2014,10,11,06,55,10.60
2014,10,11,06,56,10.70
2014,10,11,06,57,10.70
2014,10,11,06,58,10.70
2014,10,11,06,59,10.70
2014,10,11,07,00,10.70
2014,10,11,07,01,10.70
2014,10,11,07,02,10.80
2014,10,11,07,03,10.80
2014,10,11,07,04,10.80
2014,10,11,07,05,10.80
2014,10,11,07,06,10.80
2014,10,11,07,07,10.80
2014,10,11,07,08,10.80
2014,10,11,07,09,10.80
2014,10,11,07,10,10.80
2014,10,11,07,11,10.90
2014,10,11,07,12,10.90
2014,10,11,07,13,11.00
2014,10,11,07,14,11.00
2014,10,11,07,15,11.00
2014,10,11,07,16,11.10
2014,10,11,07,17,11.10
2014,10,11,07,18,11.10
2014,10,11,07,19,11.10
2014,10,11,07,20,11.20
2014,10,11,07,21,11.20
2014,10,11,07,22,11.20
2014,10,11,07,23,11.20
2014,10,11,07,24,11.20
2014,10,11,07,25,11.20
2014,10,11,07,26,11.20
2014,10,11,07,27,11.20
2014,10,11,07,28,11.20
2014,10,11,07,29,11.20
2014,10,11,07,30,11.20
2014,10,11,07,31,11.20
2014,10,11,07,32,11.20
2014,10,11,07,33,11.20
2014,10,11,07,34,11.20
2014,10,11,07,35,11.20
2014,10,11,07,36,11.20
2014,10,11,07,37,11.20
2014,10,11,07,38,11.30
2014,10,11,07,39,11.30
2014,10,11,07,40,11.30
2014,10,11,07,41,11.30
2014,10,11,07,42,11.30
2014,10,11,07,43,11.30
2014,10,11,07,44,11.30
2014,10,11,07,45,11.30
2014,10,11,07,46,11.30
2014,10,11,07,47,11.30
2014,10,11,07,48,11.30
2014,10,11,07,49,11.30
2014,10,11,07,50,11.30
2014,10,11,07,51,11.30
2014,10,11,07,52,11.30
2014,10,11,07,53,11.30
2014,10,11,07,54,11.30
2014,10,11,07,55,11.30
2014,10,11,07,56,11.30
2014,10,11,07,57,11.30
2014,10,11,07,58,11.30
2014,10,11,07,59,11.30
2014,10,11,08,00,11.30
2014,10,11,08,01,11.30
2014,10,11,08,02,11.30
2014,10,11,08,03,11.30
2014,10,11,08,04,11.30
2014,10,11,08,05,11.30
2014,10,11,08,06,11.30
2014,10,11,08,07,11.30
2014,10,11,08,08,11.30
2014,10,11,08,09,11.30
2014,10,11,08,10,11.30
2014,10,11,08,11,11.40
2014,10,11,08,12,11.40
2014,10,11,08,13,11.40
2014,10,11,08,14,11.40
2014,10,11,08,15,11.40
2014,10,11,08,16,11.40
2014,10,11,08,17,11.40
2014,10,11,08,18,11.30
2014,10,11,08,19,11.30
2014,10,11,08,20,11.30
2014,10,11,08,21,11.30
2014,10,11,08,22,11.30
2014,10,11,08,23,11.30
2014,10,11,08,24,11.30
2014,10,11,08,25,11.30
2014,10,11,08,26,11.30
2014,10,11,08,27,11.30
2014,10,11,08,28,11.30
2014,10,11,08,29,11.30
2014,10,11,08,30,11.30
2014,10,11,08,31,11.30
2014,10,11,08,32,11.30
2014,10,11,08,33,11.30
2014,10,11,08,34,11.30
2014,10,11,08,35,11.30
2014,10,11,08,36,11.30
2014,10,11,08,37,11.30
2014,10,11,08,38,11.30
2014,10,11,08,39,11.30
2014,10,11,08,40,11.30
2014,10,11,08,41,11.30
2014,10,11,08,42,11.40
2014,10,11,08,43,11.40
2014,10,11,08,44,11.40
2014,10,11,08,45,11.40
2014,10,11,08,46,11.40
2014,10,11,08,47,11.40
2014,10,11,08,48,11.40
2014,10,11,08,49,11.40
2014,10,11,08,50,11.40
2014,10,11,08,51,11.40
2014,10,11,08,52,11.40
2014,10,11,08,53,11.40
2014,10,11,08,54,11.40
2014,10,11,08,55,11.40
2014,10,11,08,56,11.40
2014,10,11,08,57,11.40
2014,10,11,08,58,11.40
2014,10,11,08,59,11.40
2014,10,11,09,00,11.50
2014,10,11,09,01,11.50
2014,10,11,09,02,11.50
2014,10,11,09,03,11.50
2014,10,11,09,04,11.50
2014,10,11,09,05,11.60
2014,10,11,09,06,11.60
2014,10,11,09,07,11.60
2014,10,11,09,08,11.60
2014,10,11,09,09,11.70
2014,10,11,09,10,11.70
2014,10,11,09,11,11.70
2014,10,11,09,12,11.70
2014,10,11,09,13,11.80
2014,10,11,09,14,11.80
2014,10,11,09,15,11.80
2014,10,11,09,16,11.80
2014,10,11,09,17,11.80
2014,10,11,09,18,11.80
2014,10,11,09,19,11.90
2014,10,11,09,20,11.90
2014,10,11,09,21,12.00
2014,10,11,09,22,12.00
2014,10,11,09,23,12.10
2014,10,11,09,24,12.10
2014,10,11,09,25,12.20
2014,10,11,09,26,12.20
2014,10,11,09,27,12.20
2014,10,11,09,28,12.20
2014,10,11,09,29,12.30
2014,10,11,09,30,12.30
2014,10,11,09,31,12.30
2014,10,11,09,32,12.30
2014,10,11,09,33,12.30
2014,10,11,09,34,12.30
2014,10,11,09,35,12.30
2014,10,11,09,36,12.30
2014,10,11,09,37,12.30
2014,10,11,09,38,12.30
2014,10,11,09,39,12.40
2014,10,11,09,40,12.40
2014,10,11,09,41,12.40
2014,10,11,09,42,12.40
2014,10,11,09,43,12.40
2014,10,11,09,44,12.40
2014,10,11,09,45,12.40
2014,10,11,09,46,12.40
2014,10,11,09,47,12.40
2014,10,11,09,48,12.40
2014,10,11,09,49,12.40
2014,10,11,09,50,12.40
2014,10,11,09,51,12.40
2014,10,11,09,52,12.40
2014,10,11,09,53,12.40
2014,10,11,09,54,12.50
2014,10,11,09,55,12.50
2014,10,11,09,56,12.50
2014,10,11,09,57,12.40
2014,10,11,09,58,12.40
2014,10,11,09,59,12.40
2014,10,11,10,00,12.50
2014,10,11,10,01,12.50
2014,10,11,10,02,12.50
2014,10,11,10,03,12.50
2014,10,11,10,04,12.50
2014,10,11,10,05,12.60
2014,10,11,10,06,12.60
2014,10,11,10,07,12.60
2014,10,11,10,08,12.60
2014,10,11,10,09,12.60
2014,10,11,10,10,12.60
2014,10,11,10,11,12.60
2014,10,11,10,12,12.60
2014,10,11,10,13,12.60
2014,10,11,10,14,12.60
2014,10,11,10,15,12.60
2014,10,11,10,16,12.60
2014,10,11,10,17,12.60
2014,10,11,10,18,12.60
2014,10,11,10,19,12.60
2014,10,11,10,20,12.50
2014,10,11,10,21,12.50
2014,10,11,10,22,12.50
2014,10,11,10,23,12.50
2014,10,11,10,24,12.50
2014,10,11,10,25,12.50
2014,10,11,10,26,12.60
2014,10,11,10,27,12.60
2014,10,11,10,28,12.60
2014,10,11,10,29,12.60
2014,10,11,10,30,12.60
2014,10,11,10,31,12.60
2014,10,11,10,32,12.60
2014,10,11,10,33,12.50
2014,10,11,10,34,12.50
2014,10,11,10,35,12.50
2014,10,11,10,36,12.50
2014,10,11,10,37,12.50
2014,10,11,10,38,12.50
2014,10,11,10,39,12.50
2014,10,11,10,40,12.50
2014,10,11,10,41,12.40
2014,10,11,10,42,12.40
2014,10,11,10,43,12.40
2014,10,11,10,44,12.40
2014,10,11,10,45,12.40
2014,10,11,10,46,12.40
2014,10,11,10,47,12.40
2014,10,11,10,48,12.40
2014,10,11,10,49,12.40
2014,10,11,10,50,12.40
2014,10,11,10,51,12.40
2014,10,11,10,52,12.40
2014,10,11,10,53,12.40
2014,10,11,10,54,12.50
2014,10,11,10,55,12.50
2014,10,11,10,56,12.50
2014,10,11,10,57,12.50
2014,10,11,10,58,12.60
2014,10,11,10,59,12.60
2014,10,11,11,00,12.70
2014,10,11,11,01,12.80
2014,10,11,11,02,12.80
2014,10,11,11,03,12.90
2014,10,11,11,04,12.90
2014,10,11,11,05,13.00
2014,10,11,11,06,13.00
2014,10,11,11,07,13.10
2014,10,11,11,08,13.10
2014,10,11,11,09,13.20
2014,10,11,11,10,13.40
2014,10,11,11,11,13.50
2014,10,11,11,12,13.50
2014,10,11,11,13,13.60
2014,10,11,11,14,13.70
2014,10,11,11,15,13.70
2014,10,11,11,16,13.80
2014,10,11,11,17,13.90
2014,10,11,11,18,13.90
2014,10,11,11,19,14.00
2014,10,11,11,20,14.10
2014,10,11,11,21,14.10
2014,10,11,11,22,14.10
2014,10,11,11,23,14.10
2014,10,11,11,24,14.10
2014,10,11,11,25,14.20
2014,10,11,11,26,14.20
2014,10,11,11,27,14.30
2014,10,11,11,28,14.30
2014,10,11,11,29,14.40
2014,10,11,11,30,14.40
2014,10,11,11,31,14.50
2014,10,11,11,32,14.60
2014,10,11,11,33,14.70
2014,10,11,11,34,14.80
2014,10,11,11,35,14.90
2014,10,11,11,36,15.00
2014,10,11,11,37,15.10
2014,10,11,11,38,15.20
2014,10,11,11,39,15.20
2014,10,11,11,40,15.20
2014,10,11,11,41,15.20
2014,10,11,11,42,15.20
2014,10,11,11,43,15.20
2014,10,11,11,44,15.30
2014,10,11,11,45,15.40
2014,10,11,11,46,15.40
2014,10,11,11,47,15.40
2014,10,11,11,48,15.40
2014,10,11,11,49,15.40
2014,10,11,11,50,15.40
2014,10,11,11,51,15.40
2014,10,11,11,52,15.50
2014,10,11,11,53,15.50
2014,10,11,11,54,15.50
2014,10,11,11,55,15.60
2014,10,11,11,56,15.60
2014,10,11,11,57,15.70
2014,10,11,11,58,15.70
2014,10,11,11,59,15.70
2014,10,11,12,00,15.80
2014,10,11,12,01,15.80
2014,10,11,12,02,15.80
2014,10,11,12,03,15.90
2014,10,11,12,04,15.90
2014,10,11,12,05,15.80
2014,10,11,12,06,15.70
2014,10,11,12,07,15.50
2014,10,11,12,08,15.40
2014,10,11,12,09,15.30
2014,10,11,12,10,15.10
2014,10,11,12,11,15.00
2014,10,11,12,12,14.90
2014,10,11,12,13,14.80
2014,10,11,12,14,14.70
2014,10,11,12,15,14.70
2014,10,11,12,16,14.60
2014,10,11,12,17,14.60
2014,10,11,12,18,14.50
2014,10,11,12,19,14.50
2014,10,11,12,20,14.40
2014,10,11,12,21,14.40
2014,10,11,12,22,14.40
2014,10,11,12,23,14.30
2014,10,11,12,24,14.30
2014,10,11,12,25,14.30
2014,10,11,12,26,14.30
2014,10,11,12,27,14.30
2014,10,11,12,28,14.30
2014,10,11,12,29,14.30
2014,10,11,12,30,14.30
2014,10,11,12,31,14.20
2014,10,11,12,32,14.30
2014,10,11,12,33,14.30
2014,10,11,12,34,14.30
2014,10,11,12,35,14.30
2014,10,11,12,36,14.30
2014,10,11,12,37,14.30
2014,10,11,12,38,14.30
2014,10,11,12,39,14.40
2014,10,11,12,40,14.40
2014,10,11,12,41,14.50
2014,10,11,12,42,14.50
2014,10,11,12,43,14.50
2014,10,11,12,44,14.60
2014,10,11,12,45,14.60
2014,10,11,12,46,14.50
2014,10,11,12,47,14.50
2014,10,11,12,48,14.50
2014,10,11,12,49,14.50
2014,10,11,12,50,14.50
2014,10,11,12,51,14.50
2014,10,11,12,52,14.50
2014,10,11,12,53,14.50
2014,10,11,12,54,14.60
2014,10,11,12,55,14.70
2014,10,11,12,56,14.80
2014,10,11,12,57,14.80
2014,10,11,12,58,14.80
2014,10,11,12,59,14.90
2014,10,11,13,00,14.90
2014,10,11,13,01,15.00
2014,10,11,13,02,15.00
2014,10,11,13,03,15.10
2014,10,11,13,04,15.10
2014,10,11,13,05,15.10
2014,10,11,13,06,15.20
2014,10,11,13,07,15.20
2014,10,11,13,08,15.20
2014,10,11,13,09,15.30
2014,10,11,13,10,15.30
2014,10,11,13,11,15.30
2014,10,11,13,12,15.40
2014,10,11,13,13,15.50
2014,10,11,13,14,15.60
2014,10,11,13,15,15.60
2014,10,11,13,16,15.70
2014,10,11,13,17,15.80
2014,10,11,13,18,15.80
2014,10,11,13,19,16.00
2014,10,11,13,20,16.10
2014,10,11,13,21,16.20
2014,10,11,13,22,16.30
2014,10,11,13,23,16.40
2014,10,11,13,24,16.50
2014,10,11,13,25,16.60
2014,10,11,13,26,16.70
2014,10,11,13,27,16.70
2014,10,11,13,28,16.80
2014,10,11,13,29,16.80
2014,10,11,13,30,17.00
2014,10,11,13,31,17.10
2014,10,11,13,32,17.10
2014,10,11,13,33,17.20
2014,10,11,13,34,17.30
2014,10,11,13,35,17.30
2014,10,11,13,36,17.30
2014,10,11,13,37,17.30
2014,10,11,13,38,17.40
2014,10,11,13,39,17.40
2014,10,11,13,40,17.30
2014,10,11,13,41,17.30
2014,10,11,13,42,17.30
2014,10,11,13,43,17.40
2014,10,11,13,44,17.40
2014,10,11,13,45,17.30
2014,10,11,13,46,17.30
2014,10,11,13,47,17.40
2014,10,11,13,48,17.40
2014,10,11,13,49,17.40
2014,10,11,13,50,17.40
2014,10,11,13,51,17.40
2014,10,11,13,52,17.50
2014,10,11,13,53,17.60
2014,10,11,13,54,17.70
2014,10,11,13,55,17.70
2014,10,11,13,56,17.80
2014,10,11,13,57,17.80
2014,10,11,13,58,17.80
2014,10,11,13,59,17.80
2014,10,11,14,00,17.80
2014,10,11,14,01,17.90
2014,10,11,14,02,18.00
2014,10,11,14,03,18.00
2014,10,11,14,04,18.10
2014,10,11,14,05,18.20
2014,10,11,14,06,18.20
2014,10,11,14,07,18.30
2014,10,11,14,08,18.30
2014,10,11,14,09,18.40
2014,10,11,14,10,18.40
2014,10,11,14,11,18.40
2014,10,11,14,12,18.40
2014,10,11,14,13,18.40
2014,10,11,14,14,18.40
2014,10,11,14,15,18.40
2014,10,11,14,16,18.30
2014,10,11,14,17,18.30
2014,10,11,14,18,18.30
2014,10,11,14,19,18.30
2014,10,11,14,20,18.30
2014,10,11,14,21,18.20
2014,10,11,14,22,18.20
2014,10,11,14,23,18.20
2014,10,11,14,24,18.30
2014,10,11,14,25,18.30
2014,10,11,14,26,18.30
2014,10,11,14,27,18.40
2014,10,11,14,28,18.40
2014,10,11,14,29,18.50
2014,10,11,14,30,18.50
2014,10,11,14,31,18.50
2014,10,11,14,32,18.40
2014,10,11,14,33,18.40
2014,10,11,14,34,18.40
2014,10,11,14,35,18.30
2014,10,11,14,36,18.30
2014,10,11,14,37,18.30
2014,10,11,14,38,18.30
2014,10,11,14,39,18.30
2014,10,11,14,40,18.40
2014,10,11,14,41,18.40
2014,10,11,14,42,18.40
2014,10,11,14,43,18.40
2014,10,11,14,44,18.30
2014,10,11,14,45,18.30
2014,10,11,14,46,18.30
2014,10,11,14,47,18.40
2014,10,11,14,48,18.50
2014,10,11,14,49,18.50
2014,10,11,14,50,18.40
2014,10,11,14,51,18.40
2014,10,11,14,52,18.40
2014,10,11,14,53,18.40
2014,10,11,14,54,18.40
2014,10,11,14,55,18.40
2014,10,11,14,56,18.40
2014,10,11,14,57,18.30
2014,10,11,14,58,18.20
2014,10,11,14,59,18.10
2014,10,11,15,00,18.10
2014,10,11,15,01,18.10
2014,10,11,15,02,18.10
2014,10,11,15,03,18.10
2014,10,11,15,04,18.10
2014,10,11,15,05,18.10
2014,10,11,15,06,18.00
2014,10,11,15,07,18.00
2014,10,11,15,08,18.00
2014,10,11,15,09,18.00
2014,10,11,15,10,17.90
2014,10,11,15,11,17.90
2014,10,11,15,12,17.90
2014,10,11,15,13,17.90
2014,10,11,15,14,18.00
2014,10,11,15,15,18.10
2014,10,11,15,16,18.20
2014,10,11,15,17,18.30
2014,10,11,15,18,18.30
2014,10,11,15,19,18.40
2014,10,11,15,20,18.40
2014,10,11,15,21,18.40
2014,10,11,15,22,18.40
2014,10,11,15,23,18.40
2014,10,11,15,24,18.30
2014,10,11,15,25,18.30
2014,10,11,15,26,18.20
2014,10,11,15,27,18.10
2014,10,11,15,28,18.10
2014,10,11,15,29,18.00
2014,10,11,15,30,18.00
2014,10,11,15,31,17.90
2014,10,11,15,32,17.90
2014,10,11,15,33,17.80
2014,10,11,15,34,17.80
2014,10,11,15,35,17.70
2014,10,11,15,36,17.70
2014,10,11,15,37,17.70
2014,10,11,15,38,17.60
2014,10,11,15,39,17.60
2014,10,11,15,40,17.60
2014,10,11,15,41,17.60
2014,10,11,15,42,17.70
2014,10,11,15,43,17.80
2014,10,11,15,44,17.90
2014,10,11,15,45,18.10
2014,10,11,15,46,18.20
2014,10,11,15,47,18.30
2014,10,11,15,48,18.30
2014,10,11,15,49,18.40
2014,10,11,15,50,18.40
2014,10,11,15,51,18.40
2014,10,11,15,52,18.40
2014,10,11,15,53,18.40
2014,10,11,15,54,18.40
2014,10,11,15,55,18.30
2014,10,11,15,56,18.20
2014,10,11,15,57,18.20
2014,10,11,15,58,18.10
2014,10,11,15,59,18.10
2014,10,11,16,00,18.00
2014,10,11,16,01,18.00
2014,10,11,16,02,18.00
2014,10,11,16,03,18.00
2014,10,11,16,04,17.90
2014,10,11,16,05,17.90
2014,10,11,16,06,17.90
2014,10,11,16,07,17.90
2014,10,11,16,08,17.90
2014,10,11,16,09,17.80
2014,10,11,16,10,17.80
2014,10,11,16,11,17.80
2014,10,11,16,12,17.80
2014,10,11,16,13,17.80
2014,10,11,16,14,17.80
2014,10,11,16,15,17.80
2014,10,11,16,16,17.70
2014,10,11,16,17,17.70
2014,10,11,16,18,17.70
2014,10,11,16,19,17.70
2014,10,11,16,20,17.70
2014,10,11,16,21,17.60
2014,10,11,16,22,17.60
2014,10,11,16,23,17.60
2014,10,11,16,24,17.60
2014,10,11,16,25,17.60
2014,10,11,16,26,17.60
2014,10,11,16,27,17.60
2014,10,11,16,28,17.60
2014,10,11,16,29,17.60
2014,10,11,16,30,17.50
2014,10,11,16,31,17.50
2014,10,11,16,32,17.50
2014,10,11,16,33,17.50
2014,10,11,16,34,17.50
2014,10,11,16,35,17.40
2014,10,11,16,36,17.40
2014,10,11,16,37,17.40
2014,10,11,16,38,17.50
2014,10,11,16,39,17.40
2014,10,11,16,40,17.40
2014,10,11,16,41,17.40
2014,10,11,16,42,17.40
2014,10,11,16,43,17.40
2014,10,11,16,44,17.40
2014,10,11,16,45,17.40
2014,10,11,16,46,17.40
2014,10,11,16,47,17.30
2014,10,11,16,48,17.30
2014,10,11,16,49,17.30
2014,10,11,16,50,17.30
2014,10,11,16,51,17.30
2014,10,11,16,52,17.30
2014,10,11,16,53,17.30
2014,10,11,16,54,17.30
2014,10,11,16,55,17.30
2014,10,11,16,56,17.30
2014,10,11,16,57,17.20
2014,10,11,16,58,17.20
2014,10,11,16,59,17.20
2014,10,11,17,00,17.10
2014,10,11,17,01,17.10
2014,10,11,17,02,17.10
2014,10,11,17,03,17.10
2014,10,11,17,04,17.10
2014,10,11,17,05,17.00
2014,10,11,17,06,17.00
2014,10,11,17,07,17.00
2014,10,11,17,08,17.00
2014,10,11,17,09,16.90
2014,10,11,17,10,16.90
2014,10,11,17,11,16.90
2014,10,11,17,12,16.90
2014,10,11,17,13,16.90
2014,10,11,17,14,16.90
2014,10,11,17,15,16.90
2014,10,11,17,16,16.90
2014,10,11,17,17,16.90
2014,10,11,17,18,16.90
2014,10,11,17,19,16.80
2014,10,11,17,20,16.80
2014,10,11,17,21,16.80
2014,10,11,17,22,16.80
2014,10,11,17,23,16.80
2014,10,11,17,24,16.80
2014,10,11,17,25,16.80
2014,10,11,17,26,16.70
2014,10,11,17,27,16.70
2014,10,11,17,28,16.70
2014,10,11,17,29,16.70
2014,10,11,17,30,16.70
2014,10,11,17,31,16.70
2014,10,11,17,32,16.70